Temperature
23 22 20 22 28 33 32 32 32 32 32 31 30 31 31 30 30 28 23 23 22 22 22 22 21 21 20 20 20 20 20 20 20 20 21 20 20 20 20 20 20 20 20 20 20 20 20 20 20
22 21 22 26 32 32 31 32 32 32 31 30 30 30 30 29 26 24 22 22 22 22 22 22 22 21 21 20 20 20 20 20 20 20 20 20 20 20 20 20 20 20 20 20 20 20 20 20 20
23 22 26 32 33 32 32 32 32 32 31 30 30 30 29 28 25 23 22 22 22 22 22 22 22 22 21 21 21 20 20 20 20 20 20 20 20 20 20 20 20 20 20 20 19 19 19 19 19
22 25 29 33 32 32 32 32 32 32 31 30 31 30 28 24 24 23 23 22 22 22 22 23 22 22 21 21 21 21 21 20 20 20 20 20 20 20 20 19 19 19 19 19 19 19 19 19 19
24 29 33 33 32 32 33 32 32 33 32 31 31 30 28 24 23 23 22 22 22 21 21 22 22 22 21 21 21 21 21 20 20 20 20 20 20 20 19 19 19 19 19 19 19 19 18 18 18
29 32 33 32 32 32 33 32 32 33 32 31 31 31 27 23 23 23 22 22 22 21 21 21 22 22 21 21 21 21 21 20 20 20 20 20 20 20 19 19 19 19 19 19 19 19 18 18 18
30 32 33 32 32 32 32 32 32 32 32 31 31 31 28 25 24 23 22 22 22 22 21 21 21 21 21 21 21 20 20 20 20 20 20 20 20 20 19 19 19 19 19 19 19 19 18 18 18
29 32 32 32 32 32 32 32 32 32 32 30 30 31 30 25 23 23 22 22 22 21 21 20 20 20 20 20 20 20 20 20 20 20 20 19 19 19 19 19 19 19 19 19 19 19 19 19 18
28 32 32 33 32 33 32 32 32 31 31 30 30 29 28 25 23 22 22 22 21 21 21 21 20 19 19 19 19 20 20 20 20 19 19 19 19 18 18 19 19 19 19 19 19 19 19 19 19
30 32 32 32 32 33 32 32 32 32 32 30 29 26 25 24 23 23 23 22 21 21 21 20 20 20 19 19 19 19 19 19 19 18 18 18 18 18 18 18 19 19 19 19 19 19 19 19 18
30 31 32 31 31 31 32 32 32 33 33 32 31 27 25 24 23 23 23 23 22 21 21 21 20 20 20 19 19 19 19 19 18 18 18 18 18 18 18 18 18 18 19 19 18 18 18 18 18
29 30 30 30 30 30 31 32 32 33 33 31 30 28 26 25 25 24 24 23 22 22 21 21 20 21 21 20 20 19 19 19 19 18 18 18 18 18 18 18 18 18 18 18 18 18 18 18 18
29 30 30 30 30 30 30 31 31 32 31 30 29 27 26 26 26 25 24 23 22 22 21 21 21 22 22 22 21 20 19 19 19 19 18 18 18 18 18 18 18 18 18 18 18 18 18 18 18
29 29 30 30 30 30 30 31 31 31 30 29 28 27 27 27 26 25 24 23 22 22 21 21 22 22 22 22 21 21 20 19 19 19 18 18 18 18 18 18 18 18 18 18 18 18 18 18 18
28 29 31 31 31 30 30 31 31 29 28 29 28 27 27 26 25 25 24 23 23 22 22 22 22 21 22 21 21 20 19 19 19 18 18 18 18 18 18 18 18 18 18 18 18 18 18 18 18
29 30 30 31 31 30 30 31 31 28 29 29 28 27 26 25 25 24 24 23 22 22 22 22 21 21 21 21 20 19 19 19 19 18 18 18 18 18 18 18 17 18 18 18 18 18 18 18 18
29 30 30 30 30 30 31 31 30 28 29 28 27 27 26 24 24 24 23 23 22 22 22 22 22 21 21 20 20 20 19 19 19 18 18 18 17 17 17 17 17 17 17 17 17 17 18 18 18
29 29 29 30 30 30 30 30 29 28 28 28 27 26 25 24 24 23 23 22 22 22 22 22 22 21 21 20 20 20 19 19 18 18 18 17 17 17 17 17 17 16 17 17 17 17 17 18 18
28 29 29 29 29 29 29 29 29 28 28 27 27 26 25 24 23 22 22 22 22 22 22 22 22 22 21 20 20 20 19 19 18 18 17 17 16 16 16 16 16 16 16 16 16 17 17 17 17
28 28 28 29 29 29 28 29 29 28 27 26 26 25 24 23 22 21 21 21 22 21 21 22 22 21 21 21 20 20 19 19 18 18 17 16 16 16 16 15 16 16 16 16 16 16 16 16 17
28 28 28 28 28 28 28 28 28 28 26 25 25 24 24 23 23 22 22 21 21 21 21 21 21 21 21 21 20 20 19 18 18 18 17 16 16 16 16 16 15 15 15 15 15 15 15 16 16
28 28 28 27 27 28 28 28 28 28 27 26 25 24 23 23 22 22 21 21 20 20 20 20 21 21 21 20 20 19 19 19 18 18 17 16 16 15 15 15 15 15 15 15 15 15 15 15 16
28 28 28 27 27 27 28 27 28 27 26 26 24 23 22 22 21 20 20 19 19 19 19 20 20 20 20 20 19 19 19 18 18 17 17 16 16 15 15 15 15 15 15 14 15 15 15 14 15
28 27 27 27 27 26 27 26 26 25 23 24 23 21 20 20 19 19 18 18 19 19 19 19 19 19 19 19 19 19 18 18 18 17 17 16 16 15 14 14 14 15 14 14 14 14 14 14 14
28 27 26 26 26 26 27 26 24 22 22 22 21 20 19 18 17 17 16 16 17 17 18 18 18 18 18 18 18 18 18 18 17 17 16 16 16 15 15 14 15 14 14 14 14 14 14 14 14
27 27 25 25 25 26 27 26 24 21 20 19 19 18 18 17 16 15 15 15 15 15 15 16 16 16 16 16 16 17 17 17 16 16 16 16 15 15 15 15 15 14 14 14 14 14 14 14 14
27 27 28 26 26 25 26 25 22 21 20 19 18 18 17 16 15 15 14 14 14 13 13 14 14 14 14 15 15 15 16 16 16 16 16 15 15 15 15 15 15 14 14 14 14 13 13 13 13
27 27 26 26 24 24 25 26 25 21 20 19 18 17 16 16 15 14 14 13 13 13 12 12 12 12 13 13 13 14 14 14 15 15 15 15 15 15 15 15 14 14 14 13 13 13 13 13 13
26 26 25 26 25 24 24 25 21 19 18 18 17 16 16 15 15 14 13 12 12 12 12 11 11 11 11 12 12 13 13 13 14 14 14 14 14 14 14 14 14 14 13 13 13 13 13 13 13
26 26 25 24 24 24 24 23 18 18 18 17 16 15 15 14 14 13 13 12 11 11 11 10 10 10 10 11 11 11 12 12 12 12 13 13 14 13 13 13 13 13 13 13 13 13 13 13 13
Wind_Speed
9 7 5 5 5 5 11 9 7 7 6 6 5 3 4 5 4 4 6 15 17 18 21 22 19 17 16 16 16 16 17 16 15 14 13 12 11 10 10 9 8 7 7 6 6 5 5 6 6
4 4 5 5 2 8 10 7 8 8 5 3 4 3 4 6 6 7 10 15 18 18 20 20 20 18 17 16 16 16 16 15 14 13 12 11 11 10 9 8 7 6 6 6 5 5 5 5 5
5 6 5 4 2 6 8 6 6 4 3 3 3 4 4 5 6 6 11 18 18 17 18 19 21 18 17 16 15 15 14 14 13 12 11 11 10 9 8 7 6 6 5 5 5 4 4 4 4
4 5 5 4 5 6 4 4 2 2 3 3 3 5 5 6 4 8 16 18 18 17 17 20 20 18 17 16 15 14 14 13 13 12 11 10 10 9 8 7 6 6 5 5 5 5 5 5 5
5 5 5 4 5 4 3 4 1 1 3 3 3 6 6 5 7 13 17 17 17 16 16 20 20 18 17 16 15 14 13 13 12 12 11 10 10 9 8 8 7 7 6 6 6 6 6 7 7
5 5 6 3 5 4 4 3 1 2 2 2 3 6 6 7 9 14 16 16 16 16 15 18 19 17 17 16 15 14 14 13 13 12 12 11 10 10 9 9 8 8 8 8 8 8 8 8 8
7 6 4 2 4 4 5 3 1 1 1 2 2 4 8 10 11 14 14 14 14 14 14 15 18 17 15 14 14 13 13 13 13 12 12 12 11 11 10 10 10 10 10 10 10 10 10 10 10
5 5 6 5 4 4 4 3 2 2 1 3 3 3 7 13 13 14 14 13 13 13 13 13 15 15 15 15 14 13 12 12 12 12 12 12 12 12 13 13 14 12 12 12 12 12 12 12 12
4 7 8 5 3 2 4 3 1 1 3 4 2 3 8 19 17 15 14 13 13 12 12 12 13 12 12 12 14 14 13 14 13 13 14 13 13 14 13 16 12 12 13 13 13 14 14 14 15
5 10 5 0 2 3 5 4 3 3 5 6 6 8 13 18 18 17 15 15 15 14 13 12 11 11 11 10 10 11 12 13 13 12 12 12 12 10 11 4 9 13 14 15 16 16 15 16 14
5 7 3 2 3 6 6 5 3 5 5 4 6 11 16 18 18 17 15 14 14 14 13 13 11 10 10 8 8 8 8 9 10 12 11 10 10 10 10 9 9 12 14 14 14 16 14 13 11
6 7 6 6 6 7 8 7 6 7 4 4 1 10 17 19 19 17 16 14 13 13 13 12 12 10 10 9 8 7 7 7 8 9 10 10 8 8 9 8 10 10 9 9 10 10 12 12 13
8 8 7 8 9 10 11 11 9 9 5 4 2 11 17 18 17 16 14 13 12 12 12 12 11 10 9 8 7 7 8 8 9 8 9 10 9 9 9 8 9 11 11 10 10 10 10 11 12
5 9 10 9 8 6 8 9 8 7 6 5 6 11 15 16 17 15 14 13 13 12 12 11 11 11 9 8 7 7 8 8 9 9 10 11 11 9 9 10 10 11 12 11 10 11 11 11 11
7 9 9 5 5 4 6 10 5 6 6 6 7 10 12 14 14 14 14 13 12 11 11 10 10 10 10 9 9 8 8 8 8 8 10 11 12 11 10 11 11 11 12 12 11 12 11 11 11
7 10 11 3 2 1 7 9 3 5 2 4 6 9 10 11 13 12 12 11 10 10 10 10 8 9 9 8 7 6 7 7 7 8 9 10 11 12 10 11 11 11 12 10 11 11 11 11 11
9 10 8 4 3 2 5 3 4 5 2 2 5 7 9 10 10 10 10 10 9 9 9 9 9 8 6 5 5 5 5 6 6 7 7 8 10 10 10 10 11 12 11 11 12 11 11 12 13
4 6 6 5 2 3 2 1 2 4 3 2 3 5 7 8 8 8 9 9 9 9 9 8 8 7 5 4 4 4 4 4 4 5 5 7 8 9 10 10 11 11 11 11 11 13 12 12 12
2 4 4 1 2 4 3 4 2 2 1 1 2 3 5 6 6 7 8 9 10 10 9 8 7 7 6 4 4 3 3 2 3 4 4 6 8 9 8 10 10 10 11 12 13 12 14 13 11
4 4 4 3 1 5 6 7 3 1 1 1 1 2 4 5 7 7 8 8 8 8 8 8 8 8 7 5 4 2 2 3 3 4 4 6 7 8 9 9 10 11 10 12 13 13 12 12 10
3 4 5 6 5 6 8 11 6 3 1 0 0 0 2 4 6 6 6 5 5 6 6 6 6 7 7 6 5 4 4 5 4 4 4 5 7 8 8 10 11 11 12 12 12 12 14 13 12
4 2 6 8 10 8 5 10 4 4 2 2 2 2 3 3 2 3 2 1 1 1 2 3 5 6 6 7 7 6 5 5 5 5 5 6 7 8 8 9 10 11 11 12 13 13 12 13 13
5 3 7 9 10 10 7 8 3 4 3 5 6 5 4 4 4 5 5 6 6 5 5 4 5 6 6 7 7 7 7 6 6 5 6 7 7 7 8 8 9 10 11 12 12 13 13 13 14
2 5 7 9 9 8 3 7 2 4 6 7 7 7 7 7 8 9 9 8 7 7 7 6 6 6 7 7 8 9 9 8 8 8 8 8 7 7 8 8 9 10 11 11 12 13 15 14 15
6 9 8 6 5 3 2 7 3 7 7 8 8 9 10 10 11 12 13 12 12 11 10 9 7 6 6 7 8 9 9 9 10 10 8 8 8 8 8 9 9 10 11 12 13 13 14 15 16
8 9 9 8 8 6 5 5 5 7 7 8 10 11 11 13 13 14 14 14 13 14 14 13 11 9 8 7 7 8 9 9 9 9 9 9 9 9 9 10 10 12 12 13 12 12 13 13 14
8 8 8 11 13 12 7 3 7 7 7 9 10 11 12 12 13 13 14 14 14 14 14 14 14 12 12 10 9 8 8 10 11 10 10 10 9 9 9 10 11 12 13 13 13 12 13 13 14
4 7 6 9 10 11 9 8 4 7 5 6 8 9 10 11 12 13 13 13 13 13 13 13 13 13 13 13 12 10 10 10 11 11 11 11 11 10 10 11 11 12 13 13 13 13 13 13 13
4 4 5 8 8 11 14 6 7 6 5 5 6 8 9 11 11 11 11 12 12 12 12 12 12 12 12 13 13 13 12 12 12 11 12 12 12 11 11 11 11 12 12 12 12 13 13 13 12
5 5 5 8 9 10 14 4 8 6 5 5 7 9 10 11 11 12 12 11 11 12 12 12 12 12 12 13 13 13 14 13 13 13 14 13 13 12 12 12 11 12 12 11 12 12 11 11 11
Wind_Direction
191 205 229 242 236 99 76 69 59 58 58 47 44 21 23 23 1 58 116 145 144 146 146 155 160 159 155 150 147 145 145 147 148 149 150 149 149 148 148 147 145 142 137 132 129 127 128 127 127
215 215 237 246 243 94 84 63 60 52 66 62 57 47 47 59 49 97 133 144 148 148 150 158 159 162 159 156 154 152 152 153 154 155 156 157 157 157 157 156 156 155 152 150 150 150 148 146 145
221 234 265 255 73 76 80 65 55 64 66 18 46 42 42 58 87 119 139 149 150 147 151 153 161 165 163 161 160 159 159 159 161 163 164 165 166 166 167 168 170 173 174 174 177 178 176 174 173
235 239 246 243 107 76 53 42 35 81 78 47 57 79 80 59 87 126 143 152 150 151 156 154 165 167 167 167 167 167 167 167 169 171 173 174 175 177 180 183 189 196 199 203 205 206 204 201 202
251 267 246 187 112 87 52 18 14 48 53 64 65 86 95 85 99 132 148 154 155 156 157 155 167 170 172 172 173 175 176 177 179 181 184 186 189 193 198 202 208 216 223 226 227 225 224 220 219
259 260 247 174 118 99 63 38 249 84 88 99 95 100 102 118 130 144 152 159 159 158 160 154 167 173 176 178 180 182 184 187 189 192 195 198 202 207 213 218 222 226 232 236 240 239 237 234 233
285 280 250 189 140 118 47 12 358 17 161 125 116 107 124 143 140 148 153 161 161 162 162 160 171 177 181 185 189 192 195 198 201 204 206 209 214 219 224 228 231 234 235 236 238 241 243 242 240
290 273 228 201 181 122 45 7 15 292 142 125 178 142 145 151 148 149 153 162 166 168 171 170 177 178 185 189 193 200 206 210 213 216 219 221 226 229 229 233 227 233 240 241 241 242 244 244 243
268 253 230 206 196 120 25 348 38 214 159 169 163 59 114 141 150 155 160 166 172 176 180 182 182 181 192 198 189 199 210 215 220 223 222 229 239 239 226 231 221 230 241 245 246 246 247 248 242
244 248 233 33 309 323 337 316 320 217 189 184 159 119 133 147 157 166 171 174 178 183 187 188 194 185 199 205 197 211 217 214 222 234 230 231 242 255 263 241 219 240 246 249 246 247 248 246 248
245 259 295 277 301 310 298 288 267 257 218 199 189 163 159 162 168 176 180 181 180 185 191 192 196 195 205 211 219 220 228 229 230 237 245 251 263 260 258 259 234 234 238 246 238 235 242 243 244
258 260 275 284 300 292 287 284 269 259 288 16 305 169 169 174 178 181 182 183 181 188 192 196 193 201 211 222 226 232 239 240 248 244 245 253 253 261 265 264 268 265 254 250 258 254 251 252 253
250 269 277 279 282 282 275 266 272 269 297 311 208 173 179 181 180 182 180 182 182 189 194 196 197 201 207 217 238 243 251 256 252 259 252 254 257 260 263 265 263 266 266 258 250 256 260 257 254
284 288 278 275 278 264 262 261 253 267 307 276 202 186 186 183 180 177 179 183 187 191 193 194 200 203 209 215 226 243 254 253 264 259 256 256 262 265 267 265 264 264 265 265 265 261 257 254 252
278 274 256 244 271 258 260 245 249 314 295 244 206 187 183 181 180 182 183 186 189 191 192 195 201 204 210 223 231 241 251 257 261 266 265 262 264 268 268 270 269 266 267 265 262 261 258 253 250
246 246 239 185 325 238 249 244 50 349 297 219 192 177 178 179 185 186 186 190 190 188 189 194 201 202 208 222 239 257 267 273 273 276 276 275 277 277 274 273 273 273 270 266 261 256 255 252 251
220 233 234 195 41 333 259 263 39 9 17 152 172 172 177 178 188 187 188 186 188 185 186 189 196 198 202 211 230 254 267 273 281 285 289 293 290 290 285 283 282 280 275 269 266 260 256 255 252
216 230 224 233 32 331 282 310 35 26 27 94 150 164 172 179 180 178 181 176 174 173 179 183 184 187 186 194 212 243 256 268 278 291 300 300 298 298 297 288 287 286 279 272 267 266 262 259 258
258 252 243 244 1 309 296 297 326 2 358 91 153 166 175 172 158 159 161 163 168 170 172 175 175 172 180 188 205 214 229 259 286 294 308 303 303 305 299 295 298 289 284 283 279 273 268 262 258
228 244 242 220 274 298 292 282 270 285 319 325 288 195 175 160 148 145 152 161 164 162 168 170 175 175 185 181 194 216 254 266 288 298 300 297 304 304 298 300 295 292 290 282 278 275 273 271 257
246 285 304 303 298 249 275 259 216 171 169 68 348 141 144 147 147 145 150 153 159 164 175 184 182 186 193 190 199 204 222 246 256 282 287 299 302 299 299 296 294 296 290 285 285 281 271 270 266
283 320 298 291 285 281 276 280 183 159 140 61 53 84 106 109 110 110 97 50 331 263 222 213 210 212 208 208 219 228 250 273 295 298 302 300 291 294 297 293 292 290 289 288 281 277 275 269 266
318 316 285 286 281 277 249 267 157 122 53 36 40 47 52 48 41 32 17 3 338 318 296 267 248 239 232 233 233 239 252 267 279 289 288 290 294 292 293 293 293 289 285 285 284 282 274 269 265
264 254 252 252 258 251 238 278 160 62 12 13 36 45 42 39 38 32 22 16 359 345 323 298 276 266 259 253 253 252 262 270 280 283 290 291 297 297 298 297 293 289 287 286 281 277 271 266 266
258 282 285 267 247 251 144 271 73 58 36 32 42 47 45 44 40 35 28 25 19 12 3 350 333 312 295 276 270 267 266 266 263 271 279 285 295 300 306 302 296 293 290 286 283 278 274 270 265
296 289 282 292 296 298 247 260 105 85 70 63 60 57 51 46 43 39 32 27 24 22 18 14 7 355 342 322 305 290 280 271 269 265 276 281 286 295 304 295 291 291 290 288 284 281 275 269 265
296 279 296 284 278 279 275 159 136 114 85 69 61 54 47 41 37 33 28 24 21 20 20 18 15 11 4 354 339 319 306 292 286 279 265 269 272 282 286 287 289 290 290 289 286 279 276 272 266
311 307 278 275 283 284 277 256 202 134 84 62 48 40 35 29 26 24 20 18 16 13 14 13 11 8 3 359 351 342 331 317 302 287 280 276 275 274 277 280 285 289 290 290 286 282 276 272 266
288 266 286 281 286 289 290 304 63 83 71 44 35 24 16 10 9 8 9 7 5 4 4 2 -0 358 356 353 347 342 337 331 322 307 294 284 276 272 270 274 280 286 291 293 292 288 283 275 269
282 305 293 291 290 281 283 298 77 79 65 32 10 3 358 353 351 352 353 352 351 350 349 348 345 344 343 343 340 338 335 333 328 319 308 296 283 273 268 269 274 280 287 292 292 292 289 280 272
Height
1511 1510 1511 1513 1505 1493 1500 1497 1494 1493 1494 1497 1499 1498 1497 1499 1501 1510 1515 1515 1518 1520 1521 1524 1527 1530 1533 1536 1539 1541 1544 1546 1547 1549 1550 1551 1552 1553 1554 1555 1556 1557 1557 1558 1558 1559 1559 1559 1560
1513 1512 1513 1510 1494 1501 1506 1498 1496 1497 1499 1501 1500 1501 1501 1504 1509 1512 1513 1516 1519 1521 1523 1525 1528 1531 1534 1537 1540 1542 1545 1546 1548 1550 1551 1552 1553 1554 1555 1556 1557 1557 1558 1559 1559 1559 1560 1560 1560
1513 1513 1513 1499 1494 1501 1504 1498 1498 1499 1501 1501 1502 1503 1504 1508 1512 1513 1514 1516 1520 1522 1525 1526 1529 1532 1535 1538 1541 1543 1545 1547 1549 1550 1551 1553 1553 1554 1555 1556 1557 1557 1558 1558 1559 1559 1560 1560 1560
1515 1515 1510 1497 1498 1499 1499 1498 1499 1498 1500 1502 1502 1504 1509 1512 1513 1514 1515 1518 1521 1523 1526 1528 1530 1533 1536 1539 1541 1544 1546 1548 1549 1551 1552 1553 1554 1554 1555 1556 1556 1557 1557 1557 1558 1558 1559 1559 1559
1516 1512 1500 1497 1498 1498 1499 1500 1500 1498 1500 1502 1503 1504 1510 1513 1514 1515 1517 1520 1523 1526 1528 1529 1531 1534 1537 1539 1542 1544 1546 1548 1549 1551 1552 1553 1554 1554 1555 1555 1555 1555 1556 1556 1556 1557 1557 1557 1558
1515 1506 1500 1501 1501 1499 1499 1501 1499 1499 1501 1504 1504 1505 1512 1514 1515 1517 1519 1523 1526 1528 1530 1530 1532 1535 1537 1540 1542 1544 1546 1548 1549 1550 1551 1552 1553 1553 1554 1554 1554 1554 1554 1554 1555 1555 1555 1556 1556
1514 1503 1499 1500 1502 1500 1501 1501 1499 1500 1501 1503 1505 1505 1512 1516 1517 1519 1521 1524 1528 1530 1532 1532 1533 1535 1538 1540 1542 1544 1546 1547 1548 1550 1551 1551 1552 1552 1552 1552 1552 1552 1552 1552 1552 1553 1553 1553 1554
1514 1505 1500 1499 1502 1501 1501 1500 1501 1500 1502 1505 1506 1505 1509 1515 1516 1519 1522 1524 1528 1530 1532 1533 1535 1537 1538 1540 1542 1544 1545 1547 1548 1549 1549 1550 1550 1551 1550 1551 1550 1550 1550 1550 1550 1550 1551 1551 1551
1515 1507 1500 1498 1500 1499 1501 1500 1501 1501 1502 1505 1506 1507 1509 1512 1515 1519 1522 1524 1527 1529 1532 1534 1537 1537 1539 1541 1542 1543 1544 1545 1546 1547 1548 1548 1549 1550 1550 1549 1548 1548 1548 1548 1548 1548 1548 1548 1548
1512 1504 1498 1500 1500 1500 1502 1501 1500 1499 1500 1503 1506 1508 1509 1511 1514 1518 1520 1523 1525 1527 1530 1533 1536 1537 1539 1541 1543 1543 1544 1545 1545 1547 1547 1547 1547 1548 1549 1547 1546 1545 1545 1545 1545 1545 1544 1544 1546
1509 1504 1502 1503 1504 1504 1502 1500 1500 1498 1495 1498 1502 1506 1508 1511 1514 1517 1520 1522 1524 1526 1529 1532 1533 1535 1537 1539 1541 1542 1544 1544 1544 1545 1544 1545 1545 1545 1545 1545 1544 1542 1542 1542 1542 1541 1541 1542 1543
1510 1506 1507 1506 1505 1504 1502 1500 1498 1497 1497 1500 1502 1504 1506 1509 1512 1515 1518 1521 1523 1525 1528 1530 1532 1533 1535 1537 1539 1540 1541 1542 1543 1543 1541 1542 1541 1541 1541 1540 1541 1540 1539 1538 1538 1538 1539 1538 1538
1510 1507 1506 1506 1504 1503 1502 1500 1499 1497 1498 1500 1501 1503 1505 1508 1511 1515 1518 1520 1522 1524 1526 1528 1530 1531 1533 1534 1536 1538 1539 1540 1540 1539 1539 1538 1537 1537 1537 1536 1535 1535 1535 1534 1533 1533 1533 1533 1533
1509 1508 1505 1503 1502 1501 1500 1497 1498 1496 1499 1499 1500 1502 1504 1507 1510 1513 1516 1518 1520 1522 1525 1527 1528 1530 1532 1533 1534 1535 1536 1536 1536 1536 1535 1534 1533 1533 1532 1531 1530 1529 1529 1529 1528 1527 1527 1527 1527
1510 1506 1500 1498 1499 1498 1498 1495 1495 1498 1497 1497 1498 1501 1503 1506 1509 1512 1514 1517 1519 1521 1523 1525 1526 1528 1530 1531 1532 1533 1534 1533 1533 1532 1531 1530 1529 1528 1527 1526 1525 1524 1523 1523 1522 1521 1521 1521 1521
1505 1502 1499 1495 1497 1497 1498 1493 1494 1497 1495 1496 1497 1500 1503 1506 1508 1511 1514 1516 1519 1520 1521 1523 1525 1527 1528 1529 1530 1531 1531 1531 1530 1529 1528 1527 1525 1524 1523 1521 1520 1518 1517 1517 1516 1515 1515 1515 1515
1501 1500 1497 1496 1496 1494 1493 1492 1496 1496 1495 1495 1497 1500 1502 1505 1508 1510 1512 1514 1516 1518 1520 1521 1523 1525 1526 1527 1528 1528 1528 1528 1527 1526 1525 1524 1522 1520 1518 1517 1515 1513 1512 1510 1510 1509 1508 1508 1508
1501 1499 1500 1498 1496 1495 1494 1495 1495 1497 1496 1496 1498 1500 1502 1504 1507 1509 1511 1512 1514 1516 1518 1519 1521 1523 1524 1525 1526 1526 1526 1526 1525 1524 1522 1520 1518 1516 1514 1513 1510 1509 1507 1505 1503 1502 1502 1501 1501
1502 1502 1502 1500 1498 1497 1497 1496 1495 1497 1497 1497 1498 1500 1502 1504 1507 1508 1509 1511 1513 1514 1515 1518 1520 1521 1522 1523 1524 1525 1525 1524 1523 1521 1519 1516 1514 1512 1510 1508 1506 1504 1503 1501 1499 1498 1496 1495 1495
1502 1503 1501 1499 1498 1498 1498 1496 1494 1497 1498 1499 1500 1501 1503 1505 1506 1508 1509 1511 1512 1513 1514 1516 1518 1519 1520 1521 1522 1522 1522 1521 1520 1518 1515 1513 1510 1508 1507 1504 1502 1500 1497 1495 1494 1492 1491 1490 1490
1502 1502 1502 1502 1498 1496 1498 1495 1492 1495 1499 1500 1501 1502 1504 1506 1507 1509 1510 1512 1513 1514 1515 1516 1517 1517 1518 1519 1520 1519 1518 1518 1518 1516 1513 1510 1507 1504 1502 1499 1497 1495 1493 1491 1489 1487 1486 1485 1484
1503 1500 1502 1502 1503 1497 1498 1501 1492 1492 1495 1499 1501 1503 1505 1507 1509 1510 1512 1513 1514 1515 1515 1515 1515 1516 1516 1516 1517 1517 1517 1516 1514 1512 1510 1506 1503 1500 1497 1495 1492 1490 1488 1486 1483 1483 1481 1479 1478
1501 1501 1501 1500 1501 1501 1496 1499 1491 1492 1498 1500 1503 1506 1507 1509 1510 1511 1512 1512 1513 1513 1514 1514 1513 1513 1513 1513 1513 1513 1513 1512 1511 1508 1505 1502 1500 1497 1494 1491 1488 1485 1483 1480 1478 1476 1474 1473 1472
1501 1501 1499 1498 1496 1506 1499 1503 1499 1502 1508 1506 1507 1509 1510 1511 1511 1512 1512 1511 1511 1511 1511 1511 1511 1510 1510 1509 1509 1509 1508 1507 1506 1504 1502 1499 1497 1494 1491 1487 1484 1481 1478 1475 1472 1470 1468 1466 1465
1500 1504 1510 1509 1505 1503 1496 1501 1506 1511 1513 1513 1512 1513 1513 1513 1513 1512 1512 1511 1510 1509 1508 1507 1506 1506 1505 1505 1504 1504 1503 1502 1500 1499 1497 1495 1493 1490 1487 1483 1479 1476 1473 1470 1467 1464 1461 1459 1457
1499 1503 1514 1521 1514 1502 1494 1498 1506 1513 1516 1517 1517 1517 1517 1516 1515 1514 1513 1511 1510 1508 1506 1504 1502 1501 1501 1500 1499 1498 1497 1497 1496 1494 1492 1490 1487 1485 1481 1478 1475 1472 1468 1465 1461 1458 1455 1452 1450
1499 1497 1493 1502 1501 1505 1495 1496 1510 1512 1516 1519 1520 1520 1520 1519 1518 1517 1515 1513 1511 1508 1506 1503 1501 1499 1497 1496 1494 1493 1492 1490 1489 1487 1485 1484 1481 1479 1476 1473 1470 1467 1463 1459 1456 1452 1449 1446 1444
1500 1497 1499 1503 1513 1513 1499 1494 1494 1509 1515 1519 1521 1522 1522 1521 1520 1518 1516 1514 1512 1509 1507 1504 1501 1498 1496 1494 1491 1490 1487 1485 1483 1481 1479 1477 1475 1473 1470 1468 1465 1462 1458 1455 1451 1447 1444 1441 1438
1500 1499 1500 1498 1501 1511 1509 1500 1508 1513 1519 1520 1522 1523 1523 1522 1520 1519 1517 1514 1512 1509 1506 1503 1500 1497 1494 1491 1488 1485 1482 1479 1477 1475 1473 1470 1469 1467 1464 1462 1460 1457 1453 1450 1446 1442 1439 1436 1433
1497 1498 1500 1508 1506 1501 1504 1506 1515 1517 1520 1523 1524 1524 1523 1522 1520 1518 1516 1513 1510 1507 1503 1500 1497 1494 1490 1487 1484 1480 1477 1474 1471 1469 1466 1464 1462 1460 1459 1456 1454 1451 1448 1445 1441 1437 1434 1431 1429